CAPE
2 3 0 0 0 1 1 1 2 1 2 2 2 3 1 2 2 2 2 5 5 4 8 5 5 5 3 3 3 2 1 0 0 0 0 0 0 3 35 24 5 13 6
1 1 1 0 0 0 1 0 1 2 2 2 2 2 1 2 1 1 1 2 2 3 4 2 2 2 1 2 1 2 1 0 0 0 0 0 0 11 32 24 4 8 1
3 1 0 0 1 1 1 1 2 2 3 0 1 1 1 2 1 2 1 1 2 1 3 2 2 1 0 0 0 0 0 0 0 0 0 0 0 0 5 14 12 3 0
3 0 0 1 1 0 1 1 2 2 1 0 0 2 1 2 2 0 0 0 1 2 2 2 3 1 0 0 0 0 0 0 0 0 0 0 0 0 0 6 5 0 0
0 0 0 1 1 0 1 0 0 0 0 0 0 0 0 1 0 0 0 0 0 0 1 1 1 0 0 0 0 0 0 0 0 0 0 0 0 0 0 6 3 1 0
0 0 0 1 0 0 0 0 0 0 0 0 0 0 1 0 0 0 0 0 0 0 0 0 0 0 0 0 0 0 0 0 0 0 0 0 0 0 0 3 6 3 1
0 0 0 2 0 1 0 0 0 0 0 0 0 0 0 0 0 0 0 0 0 0 0 0 0 0 0 0 0 0 0 0 0 0 0 0 0 0 0 3 4 7 3
0 0 0 4 1 0 0 0 0 0 0 0 0 0 0 0 0 0 0 0 0 0 0 0 0 0 0 0 0 0 0 0 0 0 0 0 0 0 3 1 7 7 7
0 0 1 2 0 0 0 0 0 0 0 0 0 0 0 0 0 0 0 0 0 0 0 0 0 0 0 0 0 0 0 0 0 0 0 0 0 0 3 10 8 7 7
0 0 0 2 0 0 0 0 0 0 0 0 0 0 0 0 0 0 0 0 0 0 0 0 0 0 0 0 0 0 0 0 0 0 0 0 0 0 1 6 9 3 7
0 0 0 0 1 0 0 0 0 0 0 0 0 0 0 0 0 0 0 0 0 0 0 0 0 0 0 0 0 0 0 0 0 0 0 0 0 17 21 6 4 10 6
0 0 0 0 0 0 0 0 0 0 0 0 0 0 0 0 0 0 0 0 0 0 0 0 0 0 0 0 0 0 0 0 0 0 0 0 0 14 38 35 27 16 20
0 0 0 0 0 0 0 0 0 0 0 0 0 0 0 0 0 0 0 0 0 0 0 0 0 0 0 0 0 0 0 0 0 0 0 0 0 0 5 8 15 19 20
0 0 0 0 0 0 0 0 0 0 0 0 0 0 0 0 0 0 0 0 0 0 0 0 0 0 0 0 0 0 0 0 0 0 0 0 0 0 0 1 3 10 12
0 0 0 0 0 0 0 0 0 0 0 0 0 0 0 0 0 0 0 0 0 0 0 0 0 0 0 0 0 0 0 0 0 0 0 0 0 0 0 0 2 6 11
0 0 0 0 0 0 0 0 0 0 0 0 0 0 0 0 0 0 0 0 0 0 0 0 0 0 0 0 0 0 0 0 0 0 0 0 0 0 0 0 0 1 7
0 0 0 0 0 0 0 0 0 0 0 0 0 0 0 0 0 0 0 0 0 0 0 0 0 0 0 0 0 0 0 0 0 0 0 0 0 0 0 0 0 0 0
0 0 0 0 0 0 0 0 0 0 0 0 0 0 0 0 0 0 0 0 0 0 0 0 0 0 0 0 0 0 0 0 0 0 0 0 0 0 0 0 0 0 0
0 0 0 0 0 0 0 0 0 0 0 0 0 0 0 0 0 0 0 0 0 0 0 0 0 0 0 0 0 0 0 0 0 0 0 2 1 0 0 0 0 0 0
0 0 0 0 0 0 0 0 0 0 0 0 0 0 0 0 0 0 0 0 0 0 0 0 0 0 0 0 0 0 0 0 0 0 1 0 1 0 0 0 0 0 0
0 0 0 0 0 0 0 0 0 0 0 0 0 0 0 0 0 0 0 0 0 0 0 0 0 0 0 0 0 0 0 0 2 0 0 1 1 1 1 1 0 0 0
0 0 0 0 0 0 0 0 0 0 0 0 0 0 0 0 0 0 0 0 0 0 0 1 2 0 0 0 0 0 0 0 0 0 0 2 1 7 2 3 3 3 3
0 0 0 0 0 0 0 0 0 0 0 0 0 0 0 0 0 0 0 0 0 0 1 2 2 1 1 0 2 0 1 0 0 0 0 0 5 7 3 7 4 6 5
0 0 0 0 0 0 0 0 0 0 0 0 0 0 0 0 0 0 0 0 2 3 4 3 1 3 3 4 1 1 1 3 8 0 0 0 9 2 3 5 4 7 8
0 0 0 0 0 0 0 0 0 0 0 0 0 0 0 0 0 0 0 1 4 7 4 5 3 2 3 1 1 0 2 2 3 13 11 1 0 2 2 1 3 9 6
0 0 0 0 0 0 0 0 0 0 0 0 0 0 0 0 0 0 0 1 4 8 6 4 2 1 1 1 0 2 5 12 13 13 10 6 4 2 2 4 3 10 12
CIN
-1 0 0 0 0 0 0 0 0 0 0 0 0 0 0 0 0 -1 -1 -1 0 -1 -1 0 0 0 0 -1 0 0 0 0 0 0 0 0 0 0 0 -1 -8 0 0
0 0 0 0 0 0 0 0 0 0 0 0 0 0 -1 0 0 -1 -1 0 0 -1 -1 -1 0 0 0 0 0 0 0 0 0 0 0 0 0 -5 0 0 0 -1 -6
-1 -1 0 0 0 0 0 0 0 0 0 -1 0 0 -1 0 0 0 -1 0 0 -1 -1 0 0 0 0 0 0 0 0 0 0 0 0 0 0 0 -2 0 0 -1 0
-1 0 0 0 0 -1 0 0 0 0 0 -1 0 0 0 0 0 -1 0 -1 0 0 0 0 -1 0 0 0 0 0 0 0 0 0 0 0 0 0 0 -1 -1 0 0
0 0 0 0 0 0 0 0 0 0 0 0 0 0 0 0 0 0 0 0 0 -1 -1 -1 0 0 0 0 0 0 0 0 0 0 0 0 0 0 0 -1 -1 -1 0
0 0 0 0 0 0 0 0 0 0 0 0 0 0 0 0 0 0 0 0 0 0 0 0 0 0 0 0 0 0 0 0 0 0 0 0 0 0 0 0 0 -1 0
0 0 0 0 0 0 0 0 0 0 0 0 0 0 0 0 0 0 0 0 0 0 0 0 0 0 0 0 0 0 0 0 0 0 0 0 0 0 0 0 -1 0 0
0 0 0 0 0 0 0 0 0 0 0 0 0 0 0 0 0 0 0 0 0 0 0 0 0 0 0 0 0 0 0 0 0 0 0 0 0 0 0 0 -1 -1 -1
0 0 0 -1 0 0 0 0 0 0 0 0 0 0 0 0 0 0 0 0 0 0 0 0 0 0 0 0 0 0 0 0 0 0 0 0 0 0 0 -1 -1 0 0
0 0 -1 -1 0 0 0 0 0 0 0 0 0 0 0 0 0 0 0 0 0 0 0 0 0 0 0 0 0 0 0 0 0 0 0 0 0 0 0 0 0 0 0
0 0 0 0 0 0 0 0 0 0 0 0 0 0 0 0 0 0 0 0 0 0 0 0 0 0 0 0 0 0 0 0 0 0 0 0 0 0 -1 -1 0 -1 0
0 0 0 0 0 0 0 0 0 0 0 0 0 0 0 0 0 0 0 0 0 0 0 0 0 0 0 0 0 0 0 0 0 0 0 0 0 0 -1 -1 -1 -1 -1
0 0 0 0 0 0 0 0 0 0 0 0 0 0 0 0 0 0 0 0 0 0 0 0 0 0 0 0 0 0 0 0 0 0 0 0 0 0 0 -2 0 -1 0
0 0 0 0 0 0 0 0 0 0 0 0 0 0 0 0 0 0 0 0 0 0 0 0 0 0 0 0 0 0 0 0 0 0 0 0 0 0 0 0 0 -1 0
0 0 0 0 0 0 0 0 0 0 0 0 0 0 0 0 0 0 0 0 0 0 0 0 0 0 0 0 0 0 0 0 0 0 0 0 0 0 0 0 0 -1 -1
-3 0 0 0 0 0 0 0 0 0 0 0 0 0 0 0 0 0 0 0 0 0 0 0 0 0 0 0 0 0 0 0 0 0 0 0 0 0 0 0 0 0 -1
0 0 0 0 0 0 0 0 0 0 0 0 0 0 0 0 0 0 0 0 0 0 0 0 0 0 0 0 0 0 0 0 0 0 0 0 0 0 0 0 0 0 0
0 0 0 0 0 0 0 0 0 0 0 0 0 0 0 0 0 0 0 0 0 0 0 0 0 0 0 0 0 0 0 0 0 0 0 0 0 0 0 0 0 0 0
0 0 0 0 0 0 0 0 0 0 0 0 0 0 0 0 0 0 0 0 0 0 0 0 0 0 0 0 0 0 0 0 0 0 -1 -2 -2 -1 0 0 0 0 0
0 0 0 0 0 0 0 0 0 0 0 0 0 0 0 0 0 0 0 0 0 0 0 0 0 0 0 0 0 0 0 0 0 0 -2 -1 -1 -2 -1 0 0 0 -2
0 0 0 0 0 0 0 0 0 0 0 0 0 0 0 0 0 0 0 0 0 0 0 -1 0 0 0 0 0 0 0 0 -3 0 0 -3 -3 -1 -2 -1 0 0 0
0 0 0 0 0 0 0 0 0 0 0 0 0 0 0 0 0 0 0 0 0 0 0 -1 -2 0 0 0 -3 0 0 0 0 0 0 -3 -2 -2 -3 -2 -1 -2 -1
0 0 0 0 0 0 0 0 0 0 0 0 0 0 0 0 0 0 0 0 0 0 -2 -2 -2 -3 -2 0 -3 -1 0 0 0 -1 0 0 -2 -2 -3 -2 -1 -2 -1
0 0 0 0 0 0 0 0 0 0 0 0 0 0 0 0 0 0 0 -1 -1 -1 -2 -1 -3 -2 -3 -2 -3 -2 -3 -2 -1 0 0 0 -3 -4 -2 -4 -5 -1 -2
0 0 0 0 0 0 0 0 0 0 0 0 0 0 0 0 0 0 0 0 -1 -1 -2 -2 -1 -1 -2 -2 -2 -2 -2 -2 -2 0 -1 -2 -1 -5 -4 -8 -4 -2 -1
0 0 0 0 0 0 0 0 0 0 0 0 0 0 0 0 0 0 0 -1 -1 -1 -2 -2 -3 -2 -3 -2 -1 -3 -1 0 0 -1 0 -1 -2 -4 -3 -2 -2 -3 -2
Wind_Speed
13 14 14 15 16 17 17 18 19 20 20 21 22 23 25 26 27 28 29 30 31 31 31 32 32 33 33 33 32 32 33 33 34 33 31 29 25 26 24 24 24 25 26
14 14 14 15 15 16 17 18 18 19 20 21 22 23 25 26 27 28 29 30 31 32 32 33 33 33 33 33 33 33 33 34 34 34 31 30 19 24 26 25 25 26 26
15 15 14 15 15 16 17 17 18 19 20 21 22 23 24 26 27 29 30 31 31 32 33 33 33 34 34 34 34 34 34 34 34 32 32 26 25 24 26 27 26 27 27
15 15 14 15 16 16 17 17 18 19 20 21 22 23 24 26 28 29 30 31 32 32 33 33 34 34 35 34 34 35 35 36 35 34 29 26 26 26 27 28 28 28 28
15 15 15 15 16 16 17 17 18 19 20 21 22 23 25 27 28 29 30 31 32 33 33 34 34 35 35 35 35 35 36 36 36 35 28 26 26 28 29 29 28 29 29
15 15 15 15 16 16 16 17 18 19 20 21 22 24 25 27 28 29 31 31 32 33 33 34 35 35 35 35 36 36 36 36 36 31 29 28 25 27 29 29 28 28 29
15 15 15 15 15 16 16 17 18 19 20 21 22 24 25 27 29 29 30 31 32 33 34 35 35 36 36 36 36 36 36 35 33 30 28 28 26 29 29 29 28 28 29
15 15 14 15 15 15 16 17 18 19 20 21 23 24 26 27 28 29 30 31 32 33 34 35 36 36 37 36 35 36 36 34 31 29 28 26 27 29 30 29 28 27 28
14 14 13 13 14 15 16 17 18 19 20 22 23 25 25 27 28 29 29 31 33 33 35 36 36 36 36 34 35 36 35 33 29 29 27 25 29 30 30 29 28 28 28
13 13 12 12 13 14 16 17 18 19 20 22 23 24 24 24 26 28 31 32 33 34 35 36 36 36 35 34 32 35 33 32 28 28 26 27 30 30 30 28 28 28 29
11 11 11 11 11 13 14 16 17 18 19 20 21 24 24 27 28 28 29 31 32 34 33 35 34 35 35 33 29 32 32 30 31 27 25 28 30 30 29 28 28 29 29
8 9 10 10 11 12 14 15 17 19 21 23 25 26 27 27 28 29 28 29 29 32 32 34 32 34 35 34 33 33 32 32 29 29 24 27 29 31 31 29 28 28 29
7 8 9 10 10 12 14 15 17 19 20 22 25 27 26 28 30 32 33 33 33 34 34 35 34 34 36 34 34 33 33 31 29 28 25 26 28 30 31 31 30 29 30
6 7 9 10 11 13 14 15 17 19 21 24 25 28 28 29 32 34 32 33 34 34 36 35 34 35 35 34 33 32 32 30 29 29 26 25 27 29 30 31 31 31 32
6 7 8 10 11 13 15 17 19 20 23 24 25 27 30 31 34 33 34 34 34 35 35 35 35 36 35 34 33 32 32 31 29 28 28 25 26 28 30 31 31 31 32
7 8 9 10 12 13 16 17 19 21 21 24 25 29 28 29 33 35 35 34 34 36 35 35 36 36 35 33 32 32 31 31 29 28 28 27 24 26 27 30 31 32 33
8 9 9 11 13 14 16 17 19 22 24 25 26 25 29 31 34 35 34 34 34 35 35 34 35 35 34 33 33 32 32 30 29 28 27 28 29 23 24 29 30 33 34
9 10 10 12 13 15 17 18 21 24 25 23 28 29 31 34 34 35 34 34 35 34 33 34 35 35 34 33 33 33 33 31 29 27 26 26 28 29 31 27 30 33 35
11 10 12 13 15 17 18 20 23 23 25 27 28 30 33 33 34 35 34 34 34 32 33 34 35 34 34 33 34 35 32 33 30 26 26 27 28 26 28 30 30 31 31
12 13 13 15 16 18 20 20 23 24 26 27 29 32 34 34 34 34 33 34 32 33 33 34 34 33 33 34 37 36 36 31 25 26 24 24 24 26 27 28 30 29 23
14 14 15 17 18 19 21 25 27 26 27 29 31 31 33 33 34 35 33 33 33 33 33 33 33 34 34 35 38 38 37 25 20 23 20 27 26 27 28 28 28 27 29
15 16 17 18 21 23 24 25 26 30 27 28 29 31 31 34 33 33 33 32 33 33 32 33 33 34 34 35 38 38 36 31 24 29 26 25 25 28 30 28 28 29 28
17 17 18 20 21 22 24 24 27 25 24 31 34 33 34 31 32 32 32 31 31 31 31 32 32 34 36 35 34 34 33 29 35 21 30 23 28 28 31 29 28 28 29
18 18 19 20 22 24 26 26 29 30 31 30 30 31 31 30 30 30 31 31 30 31 32 31 31 33 35 35 32 29 26 26 26 29 30 30 28 31 32 30 29 29 28
18 18 20 21 24 26 27 29 29 30 30 30 31 31 30 30 29 29 30 30 30 30 31 30 32 33 31 32 31 29 27 25 26 26 32 33 34 31 32 32 31 30 27
18 20 21 23 25 26 27 29 30 30 31 31 32 31 32 30 30 29 31 30 30 30 31 31 31 31 31 31 29 27 25 26 27 27 29 33 34 32 31 32 30 26 27
Wind_Direction
52 58 55 50 45 40 35 33 31 27 22 19 16 13 9 7 5 3 0 358 357 355 353 350 349 348 347 345 344 343 341 339 335 334 333 334 336 337 334 331 323 323 319
66 62 59 53 46 41 38 35 31 26 21 16 13 11 9 7 4 2 359 357 354 352 351 349 348 346 344 343 342 341 339 338 335 332 332 332 343 338 336 333 326 321 317
66 66 62 55 48 43 40 35 29 25 19 16 13 10 7 5 2 360 358 355 354 352 351 350 348 346 344 343 342 341 339 337 336 334 331 334 332 336 331 330 327 321 314
72 62 60 55 49 45 40 33 27 22 17 14 11 8 6 3 0 358 356 354 353 352 351 349 348 346 344 343 341 339 338 336 333 331 332 333 328 334 329 325 322 320 313
67 61 61 59 51 46 39 32 25 19 14 11 8 6 4 0 358 357 355 354 352 351 350 349 347 345 344 343 341 339 336 334 331 329 334 331 326 330 326 322 321 317 312
65 62 67 61 53 46 37 30 24 17 14 11 7 5 2 359 358 356 355 353 352 351 350 349 348 347 345 343 340 338 336 334 331 331 331 330 328 329 326 323 319 316 312
64 68 71 62 51 44 36 28 22 18 15 11 8 4 1 360 357 356 355 354 353 351 349 348 347 345 344 342 341 339 337 334 332 330 331 328 332 328 324 321 318 316 312
67 71 71 62 49 41 34 28 23 19 15 11 7 4 2 0 359 358 356 354 352 352 350 348 346 345 343 343 341 339 336 334 332 331 330 328 333 325 323 320 317 316 313
69 69 69 62 48 39 33 29 24 19 14 10 7 5 4 2 0 358 357 354 353 352 349 348 346 344 343 343 342 338 335 334 333 332 331 330 329 324 322 318 314 313 311
69 66 66 61 54 43 35 29 24 18 13 11 8 7 5 5 2 0 356 354 352 350 349 348 346 345 344 341 342 340 336 333 335 333 331 333 327 322 317 317 314 311 310
65 65 66 59 51 41 34 27 22 16 15 12 9 6 3 359 357 355 355 353 351 351 349 349 349 346 344 343 343 342 337 337 332 332 330 332 328 323 321 317 313 311 308
61 63 59 49 43 37 25 20 11 9 5 3 1 0 358 358 355 351 351 350 350 351 350 348 346 344 343 343 341 339 337 333 331 328 333 331 326 322 321 320 316 314 309
63 56 49 40 35 25 16 13 9 5 3 3 1 358 358 355 353 349 348 350 350 350 350 348 347 347 341 341 339 339 335 334 331 329 332 331 327 322 318 315 315 314 311
58 46 41 33 24 15 13 10 6 3 0 358 358 355 354 352 350 348 352 350 350 349 346 346 345 344 342 340 340 339 336 334 331 329 330 331 328 322 319 316 312 310 308
38 37 30 24 17 12 7 5 2 0 356 356 356 356 353 349 348 352 349 348 348 347 346 344 343 343 341 340 339 338 336 333 331 330 327 329 327 323 317 314 312 310 307
37 26 20 16 11 7 2 1 0 358 2 357 354 351 357 357 352 349 347 347 347 347 346 343 342 342 341 342 340 339 336 333 330 329 328 325 327 326 322 316 311 307 304
24 20 15 11 7 4 3 1 359 359 357 354 350 359 357 354 350 348 347 347 348 346 344 344 343 343 343 343 340 339 336 334 332 329 328 326 324 324 323 319 314 308 303
20 12 14 11 10 5 360 358 358 356 353 352 350 349 351 348 349 347 348 349 348 346 346 345 345 344 344 343 341 338 336 333 331 329 327 326 324 321 318 318 314 308 301
19 20 13 11 6 1 359 357 354 354 352 347 350 350 348 347 348 348 349 348 349 349 348 347 346 345 344 343 341 338 336 332 331 330 327 326 325 324 322 317 315 310 303
27 22 16 8 3 360 357 359 355 351 350 349 351 347 347 348 351 352 349 348 351 350 348 348 347 348 345 343 340 338 335 334 335 335 332 333 330 327 323 320 316 314 316
22 17 11 7 5 360 357 351 350 348 349 345 345 349 350 352 352 351 351 349 351 350 349 350 349 347 345 344 339 338 337 337 338 342 337 332 326 325 322 320 317 315 309
19 14 14 10 4 359 357 356 348 342 347 346 346 347 351 352 352 353 352 351 352 350 350 350 350 347 345 347 342 341 341 342 350 338 332 331 329 323 317 320 316 310 308
18 17 13 11 10 7 2 357 349 347 347 345 343 346 349 353 352 354 353 353 353 353 352 351 350 348 345 346 347 345 342 342 337 345 332 337 329 324 316 317 317 311 306
20 19 20 18 13 7 2 358 355 353 351 352 353 352 351 353 353 355 355 355 355 354 352 351 351 349 347 345 347 348 345 340 337 333 329 326 330 323 318 318 316 311 306
26 26 23 18 12 7 5 1 359 357 357 356 354 353 354 355 356 358 357 357 355 354 352 351 350 348 350 348 347 347 344 342 335 330 323 323 321 323 319 315 313 310 306
31 26 21 15 11 9 6 4 3 360 358 357 356 355 355 356 357 358 357 356 354 353 352 352 351 350 351 350 349 347 343 339 334 331 326 322 320 320 320 316 312 311 305